Regional Weather Roundup
Issued by NWS

Home | Current Version | Previous Version | Text Only | Print | Product List | Glossary On
Versions: 1 2 3 4 5 6 7 8 9 10 11 12 13 14 15 16 17 18 19 20 21 22 23 24 25 26 27 28 29 30 31 32 33 34 35 36 37 38 39 40 41 42 43 44 45 46 47 48 49 50
000
ASUS44 KBMX 290910
RWRAL

ALABAMA REGIONAL WEATHER ROUNDUP
NATIONAL WEATHER SERVICE BIRMINGHAM AL
300 AM CST THU JAN 29 2015

NOTE: "FAIR" INDICATES FEW OR NO CLOUDS BELOW 12,000 FEET
WITH NO SIGNIFICANT WEATHER AND/OR OBSTRUCTIONS TO VISIBILITY.

THE REMARK "TC" DENOTES TEMPERATURE IN DEGREES CELSIUS.

ALZ001>011-014-016>018-020-291000-
NORTH ALABAMA

CITY           SKY/WX    TMP DP  RH WIND       PRES   REMARKS
MUSCLE SHOALS  PTCLDY    45  30  55 SE7       30.15F
HUNTSVILLE     MOCLDY    41  30  65 SE6       30.19F
DECATUR        MOCLDY    41  30  65 SE10      30.19F
HALEYVILLE       N/A     42  30  62 S12       30.20F
GADSDEN        MOCLDY   N/A N/A N/A CALM      30.24S
$$

ALZ012-013-022-023-030>036-040>044-291000-
WEST CENTRAL ALABAMA

CITY           SKY/WX    TMP DP  RH WIND       PRES   REMARKS
TUSCALOOSA     MOCLDY    39  33  79 S5        30.22F
$$

ALZ015-024>027-033>036-040>044-291000-
CENTRAL ALABAMA

CITY           SKY/WX    TMP DP  RH WIND       PRES   REMARKS
BIRMINGHAM     MOCLDY    46  29  51 SE7       30.24F
MONTGOMERY     PTCLDY    37  31  78 E5        30.29S WCI  33
SHELBY CO ARPT MOCLDY    39  31  72 CALM      30.25S
MAXWELL AFB    PTCLDY    37  34  86 E3        30.27F
GREENVILLE     FAIR      34  31  88 CALM      30.27R
$$

ALZ019-021-028-029-037-038-045>048-291000-
EAST CENTRAL ALABAMA

CITY           SKY/WX    TMP DP  RH WIND       PRES   REMARKS
ANNISTON       PTCLDY    35  29  78 CALM      30.26F
ALEXANDER CITY PTCLDY    34  30  85 CALM      30.28F
AUBURN         PTCLDY    37  27  65 CALM      30.31S
$$

ALZ051>064-291000-
SOUTHWEST ALABAMA

CITY           SKY/WX    TMP DP  RH WIND       PRES   REMARKS
MOBILE         PTCLDY    41  39  93 CALM      30.26S
BROOKLEY FIELD PTCLDY    42  40  92 NW3       30.28R
EVERGREEN      PTCLDY    34  32  92 CALM      30.29R
$$

ALZ049-050-065>069-291000-
SOUTHEAST ALABAMA

CITY           SKY/WX    TMP DP  RH WIND       PRES   REMARKS
DOTHAN         CLEAR     39  32  76 CALM      30.32R
OZARK          CLEAR     40  32  75 E1        30.29R
TROY           PTCLDY    36  31  82 N3        30.30R
EUFAULA        FAIR      33  30  88 CALM      30.30R
$$


USA.gov is the U.S. government's official web portal to all federal, state and local government web resources and services.